Location: Lansingburgh
(42.7845°N, 73.6696°W)
Time: 07:21:30
(UTC+00:00)

Cosmos 2082 - Pass Details

Date: 24 January 2020
Orbit: 833 x 856 km, 71.0° (Epoch: 17 February)

Event Time Altitude Azimuth Distance (km) Brightness Sun altitude
Rises 22:34:11 0° 182° (S) 3,363 7.1 -7.2°
Reaches altitude 10° 22:36:43 10° 175° (S) 2,435 6.3 -7.6°
Maximum altitude 22:41:55 42° 106° (ESE) 1,179 4.1 -8.5°
Drops below altitude 10° 22:47:11 10° 38° (NE) 2,459 5.6 -9.4°
Enters shadow 22:48:36 - 34° (NNE) 2,974 6.1 -9.7°
